QPF
0.02 0.03 0.03 0.02 0.01 0.01 0.01 0.01 0.01 0.02 0.01 0.01 0.02 0.01 0.00 0.00 0.00 0.00 0.00 0.00 0.00 0.00 0.00 0.00 0.00 0.00 0.00 0.01 0.01 0.01 0.00 0.00 0.00 0.00 0.00 0.00 0.01 0.01 0.02 0.03 0.05 0.06 0.06 0.05
0.03 0.03 0.02 0.01 0.01 0.01 0.01 0.01 0.02 0.02 0.01 0.01 0.01 0.01 0.00 0.00 0.00 0.00 0.00 0.00 0.00 0.00 0.00 0.00 0.00 0.00 0.00 0.00 0.01 0.01 0.01 0.00 0.00 0.00 0.00 0.00 0.01 0.01 0.01 0.02 0.02 0.03 0.04 0.05
0.02 0.01 0.01 0.01 0.01 0.01 0.01 0.02 0.02 0.02 0.02 0.01 0.01 0.01 0.00 0.00 0.00 0.00 0.00 0.00 0.00 0.00 0.00 0.00 0.00 0.00 0.00 0.00 0.00 0.00 0.00 0.00 0.00 0.00 0.00 0.00 0.01 0.01 0.01 0.01 0.01 0.01 0.02 0.03
0.01 0.01 0.01 0.01 0.01 0.01 0.02 0.01 0.02 0.02 0.02 0.02 0.01 0.01 0.01 0.00 0.00 0.00 0.00 0.00 0.00 0.00 0.00 0.00 0.00 0.00 0.00 0.00 0.00 0.00 0.00 0.00 0.00 0.00 0.00 0.00 0.01 0.01 0.01 0.01 0.01 0.01 0.01 0.02
0.01 0.01 0.01 0.01 0.01 0.01 0.01 0.01 0.02 0.02 0.03 0.02 0.01 0.01 0.01 0.00 0.00 0.00 0.00 0.00 0.00 0.00 0.00 0.00 0.00 0.00 0.00 0.00 0.00 0.00 0.00 0.00 0.00 0.00 0.00 0.00 0.00 0.01 0.01 0.01 0.01 0.01 0.01 0.01
0.01 0.01 0.01 0.01 0.01 0.01 0.01 0.02 0.02 0.02 0.02 0.02 0.01 0.01 0.01 0.00 0.00 0.00 0.00 0.00 0.00 0.00 0.00 0.00 0.00 0.00 0.00 0.00 0.00 0.00 0.00 0.00 0.00 0.00 0.00 0.00 0.00 0.01 0.01 0.01 0.01 0.01 0.01 0.01
0.01 0.01 0.02 0.01 0.01 0.02 0.02 0.03 0.03 0.03 0.03 0.02 0.01 0.01 0.02 0.01 0.00 0.00 0.00 0.00 0.00 0.00 0.00 0.00 0.00 0.00 0.00 0.00 0.00 0.00 0.00 0.00 0.00 0.00 0.00 0.00 0.00 0.00 0.01 0.02 0.02 0.02 0.01 0.01
0.01 0.02 0.01 0.01 0.01 0.01 0.02 0.02 0.03 0.03 0.02 0.02 0.01 0.02 0.01 0.01 0.00 0.00 0.00 0.00 0.00 0.00 0.00 0.00 0.00 0.00 0.00 0.00 0.00 0.00 0.00 0.00 0.00 0.00 0.00 0.00 0.00 0.00 0.01 0.03 0.03 0.02 0.02 0.02
0.01 0.01 0.00 0.00 0.00 0.00 0.01 0.02 0.02 0.02 0.01 0.01 0.01 0.01 0.00 0.00 0.00 0.00 0.00 0.00 0.00 0.00 0.00 0.00 0.00 0.00 0.00 0.00 0.00 0.00 0.00 0.00 0.00 0.00 0.01 0.01 0.01 0.01 0.01 0.03 0.04 0.03 0.03 0.02
0.01 0.01 0.00 0.00 0.00 0.00 0.00 0.01 0.01 0.02 0.02 0.02 0.02 0.01 0.01 0.01 0.00 0.00 0.00 0.00 0.00 0.00 0.00 0.00 0.00 0.00 0.00 0.00 0.01 0.00 0.00 0.00 0.01 0.01 0.01 0.01 0.01 0.01 0.01 0.02 0.03 0.04 0.04 0.03
0.01 0.02 0.01 0.00 0.00 0.01 0.01 0.01 0.01 0.02 0.01 0.02 0.02 0.03 0.02 0.02 0.01 0.01 0.01 0.01 0.01 0.00 0.00 0.00 0.00 0.00 0.00 0.00 0.00 0.00 0.00 0.01 0.01 0.01 0.01 0.01 0.01 0.01 0.01 0.02 0.03 0.04 0.04 0.04
0.01 0.01 0.01 0.00 0.00 0.00 0.00 0.01 0.01 0.03 0.02 0.01 0.02 0.02 0.01 0.01 0.01 0.01 0.01 0.01 0.01 0.01 0.01 0.01 0.01 0.01 0.01 0.01 0.00 0.00 0.01 0.01 0.01 0.01 0.02 0.02 0.02 0.01 0.01 0.02 0.02 0.03 0.04 0.04
0.01 0.01 0.01 0.01 0.01 0.01 0.01 0.00 0.01 0.02 0.02 0.01 0.01 0.01 0.00 0.00 0.00 0.01 0.01 0.01 0.01 0.01 0.01 0.01 0.01 0.02 0.01 0.01 0.01 0.01 0.01 0.01 0.01 0.01 0.02 0.02 0.02 0.02 0.02 0.02 0.02 0.02 0.02 0.03
0.01 0.01 0.01 0.01 0.01 0.01 0.01 0.00 0.01 0.02 0.02 0.01 0.01 0.00 0.00 0.00 0.00 0.01 0.02 0.02 0.01 0.01 0.01 0.01 0.01 0.01 0.01 0.02 0.02 0.02 0.01 0.01 0.01 0.01 0.01 0.02 0.02 0.02 0.02 0.02 0.02 0.02 0.02 0.03
0.00 0.01 0.00 0.00 0.00 0.00 0.00 0.00 0.00 0.01 0.01 0.02 0.01 0.00 0.01 0.01 0.01 0.02 0.02 0.02 0.02 0.01 0.01 0.01 0.01 0.02 0.02 0.02 0.03 0.03 0.02 0.02 0.02 0.02 0.01 0.01 0.01 0.01 0.01 0.02 0.02 0.02 0.02 0.03
0.00 0.00 0.00 0.00 0.00 0.00 0.00 0.00 0.00 0.01 0.01 0.01 0.01 0.01 0.01 0.00 0.01 0.01 0.01 0.02 0.02 0.02 0.02 0.01 0.02 0.02 0.03 0.03 0.04 0.05 0.04 0.03 0.02 0.02 0.02 0.02 0.01 0.01 0.01 0.02 0.02 0.02 0.02 0.02
0.00 0.01 0.01 0.01 0.00 0.01 0.01 0.01 0.00 0.00 0.01 0.01 0.01 0.01 0.00 0.00 0.01 0.01 0.02 0.02 0.02 0.03 0.02 0.02 0.03 0.03 0.04 0.04 0.05 0.05 0.05 0.04 0.03 0.03 0.03 0.02 0.01 0.01 0.01 0.01 0.01 0.02 0.02 0.01
0.01 0.01 0.01 0.01 0.01 0.01 0.01 0.01 0.01 0.01 0.01 0.01 0.01 0.01 0.00 0.00 0.01 0.01 0.01 0.02 0.03 0.03 0.04 0.03 0.04 0.04 0.04 0.05 0.05 0.06 0.05 0.04 0.03 0.04 0.03 0.03 0.02 0.01 0.01 0.01 0.01 0.01 0.01 0.01
0.00 0.01 0.01 0.01 0.01 0.01 0.01 0.01 0.01 0.01 0.01 0.01 0.01 0.00 0.00 0.00 0.00 0.00 0.01 0.01 0.02 0.03 0.04 0.04 0.05 0.05 0.05 0.05 0.06 0.06 0.05 0.04 0.04 0.04 0.04 0.04 0.03 0.02 0.02 0.01 0.01 0.01 0.01 0.02
0.00 0.01 0.02 0.01 0.02 0.01 0.01 0.00 0.01 0.01 0.01 0.01 0.01 0.01 0.01 0.01 0.01 0.00 0.01 0.01 0.02 0.02 0.04 0.05 0.05 0.04 0.04 0.05 0.05 0.06 0.05 0.04 0.04 0.05 0.04 0.03 0.03 0.03 0.02 0.02 0.02 0.02 0.01 0.01
0.01 0.01 0.01 0.01 0.01 0.01 0.00 0.00 0.00 0.02 0.02 0.01 0.01 0.01 0.01 0.01 0.01 0.01 0.01 0.01 0.01 0.02 0.02 0.03 0.03 0.04 0.04 0.04 0.04 0.05 0.04 0.04 0.04 0.05 0.04 0.02 0.03 0.03 0.02 0.02 0.02 0.02 0.02 0.01
0.00 0.01 0.01 0.01 0.01 0.01 0.00 0.00 0.01 0.01 0.01 0.01 0.01 0.01 0.01 0.01 0.01 0.01 0.01 0.01 0.01 0.01 0.01 0.02 0.03 0.03 0.03 0.03 0.03 0.03 0.03 0.03 0.04 0.04 0.02 0.02 0.03 0.03 0.02 0.02 0.02 0.02 0.02 0.02
0.00 0.01 0.01 0.01 0.01 0.00 0.00 0.01 0.01 0.01 0.01 0.01 0.01 0.01 0.01 0.01 0.01 0.01 0.01 0.01 0.01 0.01 0.01 0.02 0.02 0.02 0.02 0.02 0.02 0.02 0.03 0.03 0.03 0.03 0.02 0.02 0.02 0.03 0.03 0.03 0.03 0.02 0.02 0.03
0.00 0.00 0.01 0.00 0.00 0.00 0.00 0.00 0.00 0.01 0.01 0.01 0.01 0.01 0.01 0.01 0.01 0.01 0.01 0.01 0.01 0.01 0.02 0.02 0.02 0.02 0.02 0.02 0.02 0.02 0.02 0.03 0.02 0.02 0.03 0.03 0.03 0.03 0.04 0.04 0.03 0.03 0.04 0.04
0.00 0.00 0.00 0.00 0.00 0.00 0.00 0.00 0.00 0.00 0.00 0.01 0.01 0.01 0.01 0.01 0.01 0.01 0.01 0.01 0.01 0.02 0.02 0.02 0.02 0.02 0.02 0.02 0.02 0.02 0.02 0.02 0.02 0.02 0.02 0.03 0.03 0.03 0.04 0.04 0.04 0.04 0.04 0.04
0.00 0.00 0.01 0.00 0.00 0.01 0.00 0.00 0.00 0.00 0.00 0.01 0.01 0.00 0.01 0.01 0.02 0.02 0.02 0.02 0.02 0.02 0.02 0.02 0.02 0.02 0.02 0.02 0.02 0.02 0.02 0.02 0.02 0.02 0.02 0.02 0.03 0.03 0.03 0.04 0.05 0.05 0.06 0.05
MSLP
1014.21 1014.35 1014.45 1014.49 1014.47 1014.38 1014.22 1014.00 1013.72 1013.39 1013.04 1012.67 1012.31 1011.97 1011.66 1011.39 1011.19 1011.05 1010.98 1010.98 1011.06 1011.21 1011.44 1011.74 1012.08 1012.46 1012.86 1013.24 1013.59 1013.88 1014.11 1014.27 1014.37 1014.41 1014.42 1014.40 1014.36 1014.31 1014.24 1014.16 1014.05 1013.93 1013.80 1013.66
1014.44 1014.59 1014.71 1014.77 1014.78 1014.72 1014.59 1014.40 1014.13 1013.80 1013.42 1013.00 1012.59 1012.19 1011.84 1011.55 1011.34 1011.22 1011.18 1011.22 1011.32 1011.47 1011.67 1011.89 1012.13 1012.39 1012.66 1012.94 1013.21 1013.48 1013.73 1013.94 1014.13 1014.26 1014.34 1014.37 1014.33 1014.24 1014.10 1013.93 1013.73 1013.52 1013.32 1013.16
1014.56 1014.71 1014.84 1014.94 1014.99 1014.98 1014.91 1014.75 1014.51 1014.18 1013.78 1013.32 1012.83 1012.37 1011.95 1011.61 1011.38 1011.26 1011.25 1011.32 1011.45 1011.61 1011.79 1011.96 1012.12 1012.28 1012.44 1012.62 1012.83 1013.07 1013.34 1013.61 1013.87 1014.09 1014.25 1014.33 1014.31 1014.20 1014.00 1013.74 1013.46 1013.17 1012.91 1012.70
1014.60 1014.76 1014.92 1015.05 1015.16 1015.22 1015.22 1015.13 1014.93 1014.61 1014.17 1013.65 1013.08 1012.51 1011.99 1011.58 1011.29 1011.14 1011.13 1011.23 1011.39 1011.58 1011.76 1011.92 1012.03 1012.12 1012.20 1012.31 1012.46 1012.67 1012.94 1013.26 1013.59 1013.89 1014.12 1014.26 1014.26 1014.15 1013.92 1013.61 1013.25 1012.90 1012.59 1012.34
1014.65 1014.82 1015.01 1015.20 1015.38 1015.53 1015.61 1015.59 1015.44 1015.12 1014.65 1014.05 1013.37 1012.66 1012.00 1011.46 1011.07 1010.87 1010.84 1010.94 1011.14 1011.37 1011.58 1011.75 1011.86 1011.91 1011.95 1012.00 1012.10 1012.28 1012.55 1012.89 1013.26 1013.62 1013.92 1014.11 1014.16 1014.06 1013.82 1013.49 1013.10 1012.71 1012.36 1012.08
1014.78 1014.97 1015.19 1015.44 1015.70 1015.94 1016.12 1016.18 1016.07 1015.75 1015.24 1014.54 1013.71 1012.84 1012.01 1011.30 1010.78 1010.48 1010.39 1010.49 1010.72 1011.00 1011.27 1011.48 1011.61 1011.67 1011.69 1011.71 1011.77 1011.92 1012.17 1012.51 1012.90 1013.29 1013.63 1013.87 1013.96 1013.90 1013.69 1013.36 1012.97 1012.57 1012.19 1011.89
1015.05 1015.26 1015.52 1015.82 1016.16 1016.49 1016.75 1016.88 1016.80 1016.48 1015.90 1015.10 1014.12 1013.06 1012.03 1011.14 1010.45 1010.03 1009.87 1009.95 1010.19 1010.52 1010.86 1011.14 1011.32 1011.41 1011.44 1011.45 1011.48 1011.59 1011.81 1012.12 1012.50 1012.90 1013.26 1013.53 1013.67 1013.65 1013.47 1013.18 1012.82 1012.43 1012.06 1011.75
1015.47 1015.69 1015.98 1016.33 1016.73 1017.13 1017.46 1017.63 1017.58 1017.24 1016.60 1015.68 1014.56 1013.32 1012.09 1011.01 1010.15 1009.60 1009.35 1009.38 1009.63 1010.00 1010.41 1010.76 1011.02 1011.16 1011.22 1011.22 1011.24 1011.31 1011.48 1011.74 1012.09 1012.46 1012.82 1013.11 1013.28 1013.30 1013.18 1012.93 1012.61 1012.25 1011.90 1011.59
1016.01 1016.23 1016.53 1016.91 1017.34 1017.78 1018.14 1018.34 1018.29 1017.93 1017.23 1016.22 1014.96 1013.58 1012.18 1010.93 1009.92 1009.23 1008.90 1008.88 1009.12 1009.52 1009.98 1010.40 1010.73 1010.94 1011.03 1011.05 1011.05 1011.09 1011.20 1011.40 1011.69 1012.02 1012.35 1012.63 1012.81 1012.86 1012.78 1012.59 1012.31 1011.99 1011.67 1011.37
1016.62 1016.82 1017.11 1017.48 1017.90 1018.34 1018.70 1018.89 1018.83 1018.44 1017.69 1016.61 1015.27 1013.78 1012.27 1010.90 1009.78 1008.99 1008.57 1008.51 1008.73 1009.14 1009.63 1010.11 1010.49 1010.75 1010.89 1010.93 1010.92 1010.92 1010.98 1011.12 1011.34 1011.60 1011.88 1012.12 1012.29 1012.35 1012.30 1012.14 1011.91 1011.63 1011.33 1011.04
1017.22 1017.39 1017.64 1017.96 1018.34 1018.72 1019.04 1019.19 1019.08 1018.66 1017.89 1016.78 1015.41 1013.89 1012.34 1010.91 1009.73 1008.89 1008.42 1008.30 1008.49 1008.89 1009.39 1009.90 1010.32 1010.62 1010.79 1010.85 1010.84 1010.82 1010.84 1010.91 1011.05 1011.23 1011.44 1011.62 1011.75 1011.80 1011.74 1011.60 1011.39 1011.13 1010.85 1010.57
1017.79 1017.90 1018.08 1018.32 1018.61 1018.90 1019.12 1019.19 1019.02 1018.57 1017.78 1016.69 1015.35 1013.86 1012.34 1010.94 1009.77 1008.91 1008.42 1008.27 1008.42 1008.79 1009.27 1009.77 1010.20 1010.52 1010.72 1010.80 1010.80 1010.77 1010.75 1010.77 1010.83 1010.94 1011.06 1011.17 1011.23 1011.23 1011.14 1010.99 1010.78 1010.52 1010.24 1009.96
1018.30 1018.35 1018.43 1018.56 1018.72 1018.87 1018.95 1018.91 1018.66 1018.16 1017.38 1016.33 1015.07 1013.67 1012.26 1010.96 1009.86 1009.04 1008.56 1008.39 1008.50 1008.82 1009.25 1009.71 1010.13 1010.45 1010.66 1010.76 1010.78 1010.75 1010.71 1010.68 1010.69 1010.71 1010.75 1010.76 1010.74 1010.67 1010.53 1010.33 1010.09 1009.81 1009.52 1009.22
1018.77 1018.75 1018.73 1018.72 1018.71 1018.68 1018.60 1018.41 1018.05 1017.50 1016.72 1015.74 1014.60 1013.35 1012.10 1010.95 1009.97 1009.24 1008.78 1008.61 1008.67 1008.93 1009.29 1009.69 1010.07 1010.37 1010.58 1010.70 1010.74 1010.72 1010.68 1010.64 1010.59 1010.55 1010.50 1010.42 1010.30 1010.13 1009.91 1009.65 1009.35 1009.03 1008.70 1008.37
1019.22 1019.13 1018.99 1018.83 1018.64 1018.41 1018.13 1017.77 1017.29 1016.67 1015.90 1015.00 1013.99 1012.92 1011.87 1010.89 1010.07 1009.45 1009.05 1008.87 1008.89 1009.07 1009.35 1009.67 1009.99 1010.26 1010.46 1010.59 1010.66 1010.67 1010.65 1010.60 1010.52 1010.42 1010.29 1010.12 1009.90 1009.63 1009.31 1008.96 1008.58 1008.20 1007.81 1007.43
1019.65 1019.49 1019.24 1018.92 1018.54 1018.11 1017.62 1017.08 1016.47 1015.78 1015.02 1014.19 1013.31 1012.43 1011.58 1010.80 1010.14 1009.64 1009.30 1009.13 1009.10 1009.20 1009.39 1009.63 1009.87 1010.10 1010.29 1010.44 1010.54 1010.58 1010.59 1010.54 1010.45 1010.30 1010.10 1009.84 1009.52 1009.14 1008.72 1008.27 1007.80 1007.33 1006.86 1006.41
1020.04 1019.81 1019.46 1018.99 1018.43 1017.81 1017.12 1016.41 1015.66 1014.90 1014.14 1013.38 1012.64 1011.93 1011.27 1010.68 1010.18 1009.79 1009.51 1009.34 1009.28 1009.30 1009.40 1009.55 1009.72 1009.91 1010.08 1010.24 1010.37 1010.45 1010.48 1010.45 1010.34 1010.16 1009.90 1009.56 1009.14 1008.66 1008.14 1007.58 1007.02 1006.45 1005.89 1005.34
1020.30 1020.02 1019.58 1018.99 1018.28 1017.49 1016.64 1015.78 1014.92 1014.11 1013.35 1012.66 1012.03 1011.47 1010.98 1010.56 1010.20 1009.91 1009.68 1009.51 1009.41 1009.36 1009.38 1009.44 1009.55 1009.70 1009.86 1010.02 1010.17 1010.29 1010.34 1010.32 1010.20 1009.98 1009.66 1009.24 1008.74 1008.17 1007.54 1006.89 1006.22 1005.56 1004.90 1004.25
1020.36 1020.03 1019.52 1018.84 1018.03 1017.12 1016.16 1015.20 1014.28 1013.44 1012.70 1012.07 1011.54 1011.11 1010.77 1010.48 1010.23 1010.02 1009.82 1009.65 1009.51 1009.41 1009.35 1009.35 1009.40 1009.51 1009.66 1009.82 1009.99 1010.11 1010.18 1010.15 1010.01 1009.75 1009.38 1008.89 1008.30 1007.65 1006.94 1006.20 1005.44 1004.68 1003.92 1003.16
1020.14 1019.78 1019.22 1018.50 1017.63 1016.66 1015.66 1014.66 1013.73 1012.90 1012.21 1011.65 1011.22 1010.90 1010.66 1010.48 1010.31 1010.15 1009.98 1009.80 1009.62 1009.47 1009.36 1009.30 1009.31 1009.39 1009.52 1009.68 1009.84 1009.97 1010.02 1009.97 1009.79 1009.48 1009.04 1008.49 1007.83 1007.10 1006.32 1005.51 1004.68 1003.84 1002.99 1002.14
1019.63 1019.23 1018.66 1017.93 1017.06 1016.11 1015.12 1014.16 1013.28 1012.52 1011.90 1011.42 1011.09 1010.86 1010.70 1010.58 1010.47 1010.34 1010.17 1009.98 1009.78 1009.59 1009.44 1009.34 1009.33 1009.38 1009.49 1009.64 1009.78 1009.88 1009.90 1009.80 1009.57 1009.19 1008.69 1008.06 1007.34 1006.56 1005.72 1004.86 1003.98 1003.09 1002.17 1001.23
1018.84 1018.42 1017.86 1017.16 1016.35 1015.48 1014.58 1013.72 1012.94 1012.29 1011.77 1011.39 1011.14 1010.99 1010.89 1010.82 1010.72 1010.60 1010.43 1010.22 1010.00 1009.78 1009.61 1009.49 1009.46 1009.49 1009.58 1009.70 1009.81 1009.87 1009.83 1009.66 1009.36 1008.91 1008.33 1007.64 1006.86 1006.03 1005.16 1004.28 1003.37 1002.45 1001.50 1000.51
1017.87 1017.45 1016.92 1016.29 1015.58 1014.82 1014.07 1013.36 1012.73 1012.22 1011.82 1011.55 1011.38 1011.28 1011.22 1011.16 1011.07 1010.93 1010.74 1010.52 1010.28 1010.05 1009.86 1009.74 1009.69 1009.71 1009.78 1009.87 1009.93 1009.93 1009.81 1009.57 1009.18 1008.65 1007.99 1007.24 1006.42 1005.56 1004.68 1003.79 1002.90 1001.98 1001.03 1000.04
1016.87 1016.45 1015.96 1015.42 1014.84 1014.24 1013.66 1013.12 1012.66 1012.30 1012.03 1011.85 1011.74 1011.68 1011.63 1011.57 1011.46 1011.30 1011.09 1010.84 1010.59 1010.36 1010.17 1010.05 1010.00 1010.01 1010.06 1010.10 1010.11 1010.04 1009.84 1009.51 1009.03 1008.42 1007.70 1006.89 1006.04 1005.17 1004.30 1003.43 1002.58 1001.70 1000.79 999.83
1015.97 1015.55 1015.12 1014.68 1014.24 1013.80 1013.39 1013.03 1012.74 1012.51 1012.35 1012.25 1012.18 1012.14 1012.08 1011.98 1011.84 1011.65 1011.41 1011.15 1010.89 1010.66 1010.47 1010.36 1010.31 1010.32 1010.34 1010.35 1010.30 1010.16 1009.89 1009.47 1008.92 1008.23 1007.46 1006.61 1005.75 1004.88 1004.04 1003.22 1002.42 1001.62 1000.78 999.89
1015.29 1014.89 1014.52 1014.18 1013.86 1013.57 1013.31 1013.10 1012.93 1012.81 1012.73 1012.67 1012.62 1012.55 1012.46 1012.33 1012.14 1011.91 1011.64 1011.37 1011.11 1010.88 1010.72 1010.62 1010.57 1010.57 1010.57 1010.55 1010.45 1010.25 1009.91 1009.43 1008.81 1008.08 1007.27 1006.41 1005.55 1004.71 1003.91 1003.16 1002.44 1001.72 1000.98 1000.18
Thickness
5558 5551 5548 5553 5555 5559 5561 5560 5560 5564 5568 5565 5565 5570 5577 5580 5579 5579 5579 5579 5578 5579 5579 5579 5578 5577 5576 5574 5573 5574 5574 5574 5574 5575 5575 5577 5578 5580 5582 5584 5586 5587 5588 5589
5546 5541 5547 5551 5552 5551 5550 5547 5549 5554 5559 5557 5557 5562 5570 5572 5571 5571 5571 5570 5569 5569 5569 5569 5568 5567 5566 5565 5564 5564 5565 5565 5566 5566 5567 5568 5569 5571 5573 5574 5576 5578 5579 5580
5537 5539 5542 5542 5541 5540 5540 5538 5540 5540 5543 5548 5544 5550 5561 5565 5565 5564 5563 5562 5561 5560 5559 5559 5558 5557 5556 5555 5555 5556 5556 5557 5557 5558 5558 5559 5559 5561 5562 5564 5567 5568 5570 5571
5531 5533 5532 5530 5529 5528 5524 5530 5530 5529 5521 5524 5535 5524 5550 5553 5554 5554 5552 5550 5550 5550 5550 5549 5548 5547 5546 5546 5546 5546 5547 5547 5548 5549 5549 5549 5550 5551 5553 5555 5557 5559 5561 5561
5522 5522 5519 5518 5518 5518 5515 5519 5518 5516 5511 5510 5521 5512 5533 5544 5542 5542 5542 5541 5540 5540 5540 5539 5538 5538 5537 5536 5536 5537 5538 5538 5539 5539 5540 5540 5540 5541 5543 5545 5547 5549 5551 5551
5512 5513 5511 5510 5511 5511 5508 5507 5507 5507 5500 5493 5513 5512 5523 5531 5536 5533 5532 5531 5530 5530 5529 5529 5528 5527 5526 5526 5525 5526 5528 5528 5529 5529 5530 5530 5531 5531 5532 5534 5535 5537 5539 5540
5503 5504 5503 5503 5500 5500 5498 5488 5485 5489 5485 5497 5519 5513 5519 5527 5529 5526 5522 5520 5519 5519 5518 5518 5517 5516 5516 5515 5515 5516 5517 5519 5519 5519 5520 5520 5521 5521 5522 5524 5525 5526 5528 5530
5493 5493 5493 5493 5491 5485 5487 5485 5476 5477 5489 5498 5503 5504 5515 5520 5518 5517 5516 5512 5511 5508 5508 5508 5507 5506 5505 5506 5506 5506 5507 5508 5509 5510 5510 5511 5511 5512 5513 5514 5515 5516 5517 5519
5483 5484 5487 5485 5486 5484 5482 5478 5482 5471 5470 5474 5495 5510 5509 5513 5509 5507 5505 5502 5499 5498 5498 5497 5497 5497 5496 5496 5496 5496 5497 5498 5499 5500 5501 5502 5502 5503 5503 5504 5504 5505 5506 5507
5477 5469 5478 5477 5476 5474 5475 5475 5466 5462 5464 5476 5498 5503 5497 5498 5498 5497 5493 5490 5489 5488 5489 5488 5487 5487 5486 5486 5487 5487 5488 5489 5489 5490 5491 5493 5493 5493 5494 5494 5494 5494 5495 5496
5468 5457 5464 5467 5461 5462 5464 5463 5461 5461 5465 5465 5475 5487 5498 5492 5491 5487 5484 5482 5479 5478 5478 5478 5477 5477 5477 5477 5477 5478 5478 5479 5480 5480 5481 5482 5483 5484 5484 5484 5484 5484 5484 5484
5459 5453 5451 5458 5454 5454 5456 5457 5453 5447 5452 5458 5458 5472 5489 5485 5482 5480 5475 5473 5471 5470 5469 5469 5469 5468 5468 5468 5468 5468 5469 5470 5470 5471 5472 5472 5474 5474 5473 5473 5474 5473 5473 5473
5450 5444 5442 5448 5444 5441 5440 5446 5442 5439 5442 5446 5451 5468 5481 5477 5474 5470 5465 5462 5461 5461 5461 5460 5460 5459 5459 5458 5458 5458 5459 5460 5461 5461 5462 5463 5463 5464 5464 5464 5463 5463 5463 5462
5447 5436 5436 5442 5445 5439 5434 5433 5431 5428 5428 5440 5453 5463 5470 5466 5463 5461 5457 5454 5453 5453 5452 5451 5450 5449 5448 5448 5448 5448 5449 5450 5451 5451 5452 5453 5453 5454 5454 5454 5453 5453 5452 5452
5435 5431 5434 5436 5441 5438 5435 5433 5426 5421 5429 5434 5448 5453 5459 5456 5453 5451 5449 5447 5446 5445 5443 5442 5440 5439 5438 5438 5438 5438 5439 5440 5441 5442 5443 5444 5444 5444 5444 5444 5443 5443 5442 5442
5424 5425 5426 5427 5436 5434 5431 5434 5430 5426 5428 5432 5436 5442 5451 5448 5446 5444 5440 5438 5437 5435 5433 5432 5431 5431 5429 5428 5429 5429 5429 5430 5431 5432 5433 5435 5435 5434 5434 5434 5434 5434 5433 5433
5416 5412 5417 5425 5430 5427 5426 5434 5431 5428 5429 5428 5430 5438 5442 5439 5438 5434 5432 5430 5427 5425 5423 5422 5422 5421 5421 5421 5421 5420 5421 5423 5423 5423 5425 5427 5426 5425 5425 5425 5425 5424 5424 5423
5410 5406 5408 5415 5417 5415 5439 5440 5438 5431 5430 5431 5432 5434 5434 5431 5430 5429 5427 5423 5419 5417 5416 5415 5414 5414 5414 5415 5414 5415 5415 5415 5415 5416 5417 5418 5417 5416 5416 5416 5416 5416 5415 5414
5408 5404 5406 5408 5411 5423 5436 5434 5429 5424 5424 5430 5427 5428 5426 5426 5424 5424 5423 5418 5414 5412 5410 5408 5407 5407 5407 5408 5408 5408 5408 5407 5407 5408 5408 5409 5408 5407 5408 5408 5408 5408 5407 5406
5396 5396 5395 5402 5404 5413 5433 5429 5428 5423 5420 5430 5426 5423 5419 5417 5413 5416 5416 5412 5409 5407 5404 5403 5402 5402 5402 5402 5402 5401 5399 5399 5399 5400 5400 5400 5400 5400 5401 5401 5400 5400 5399 5398
5386 5387 5388 5393 5397 5413 5425 5421 5422 5417 5422 5425 5422 5418 5413 5409 5407 5408 5407 5405 5402 5400 5398 5397 5397 5396 5396 5396 5395 5394 5393 5392 5393 5393 5393 5393 5393 5394 5394 5393 5393 5392 5391 5390
5389 5387 5387 5391 5394 5409 5415 5412 5410 5413 5418 5418 5416 5413 5409 5406 5405 5403 5400 5397 5395 5393 5393 5392 5391 5391 5390 5390 5389 5388 5387 5386 5386 5386 5386 5386 5387 5387 5387 5386 5385 5384 5383 5382
5398 5399 5400 5400 5409 5415 5411 5410 5411 5411 5411 5412 5410 5407 5403 5400 5398 5396 5393 5391 5389 5388 5387 5386 5385 5384 5384 5383 5382 5381 5381 5380 5380 5379 5379 5379 5379 5378 5378 5377 5377 5376 5375 5374
5397 5398 5397 5398 5406 5411 5409 5408 5408 5407 5404 5405 5403 5401 5398 5394 5391 5389 5387 5384 5383 5382 5381 5380 5379 5378 5377 5376 5376 5375 5375 5374 5373 5372 5372 5372 5371 5370 5370 5369 5369 5368 5367 5366
5402 5387 5387 5389 5398 5403 5407 5404 5403 5402 5400 5398 5396 5393 5391 5388 5385 5382 5380 5379 5377 5377 5375 5374 5372 5371 5370 5370 5370 5369 5369 5368 5367 5366 5365 5365 5364 5363 5362 5362 5361 5361 5360 5359
5396 5388 5385 5394 5400 5396 5400 5399 5397 5394 5392 5390 5388 5387 5384 5382 5379 5377 5375 5374 5372 5371 5370 5368 5366 5365 5364 5363 5364 5364 5363 5363 5362 5361 5360 5358 5357 5356 5355 5355 5355 5354 5354 5354